Boise, ID

12:41 PM MST on February 27, 2017 (GMT -0700)
Boise Air Term

Weather History for KBOI - November, 2011

Change the Weather History Date:

Sunday, November 13, 2011

  Actual Average Record
Temperature  
Mean Temperature 43 °F 41 °F  
Max Temperature 52 °F 49 °F 69 °F (1939)
Min Temperature 34 °F 33 °F 7 °F (1916)
Degree Days  
Heating Degree Days 22 24  
Month to date heating degree days 332 277  
Since 1 July heating degree days 680 783  
Cooling Degree Days 0 0  
Month to date cooling degree days 0 0  
Year to date cooling degree days 1076 942  
Moisture  
Dew Point 32 °F    
Average Humidity 67    
Maximum Humidity 92    
Minimum Humidity 41    
Precipitation  
Precipitation T in 0.04 in 0.80 in (1897)
Month to date precipitation 0.20 0.53  
Year to date precipitation 10.00 9.36  
Snow  
Snow T in 0.10 in 3.30 in (2014)
Month to date snowfall 0.2 0.5  
Since 1 July snowfall 0.2 0.6  
Snow Depth 0.00 in    
Sea Level Pressure  
Sea Level Pressure 29.83 in    
Wind  
Wind Speed 7 mph (ESE)    
Max Wind Speed 18 mph    
Max Gust Speed 23 mph    
Visibility 10 miles    
Events      
T = Trace of Precipitation, MM = Missing Value Source: NWS Daily Summary

Daily Weather History Graph

Daily Weather History Graph

Search for Another Location

Airport or City:

Trip Planner

Search our weather history database for the weather conditions in past years. The results will help you decide how hot, cold, wet, or windy it might be!

Date:

Astronomy

Nov. 13, 2011 Rise Set
Actual Time 7:35 AM MST 5:21 PM MST
Civil Twilight 7:05 AM MST 5:52 PM MST
Nautical Twilight 6:30 AM MST 6:27 PM MST
Astronomical Twilight 5:56 AM MST 7:00 PM MST
Moon 7:31 PM MST (11/13) 10:15 AM MST (11/13)
Length of Visible Light 10h 47m
Length of Day
9h 46m
Waning Gibbous, 92% of the Moon is Illuminated
Nov 13
Waning Gibbous
Nov 18
Last Quarter
Nov 24
New
Dec 2
First Quarter
Dec 10
Full

Hourly Weather History & Observations

Time (MST) Temp. Windchill Dew Point Humidity Pressure Visibility Wind Dir Wind Speed Gust Speed Precip Events Conditions
12:31 AM 35.6 °F 28.6 °F 32.0 °F 87% 29.81 in 7.0 mi ENE 9.2 mph - N/A   Overcast
12:53 AM 35.1 °F 30.1 °F 33.1 °F 92% 29.84 in 5.0 mi East 5.8 mph - 0.00 in   Overcast
1:53 AM 35.1 °F 29.3 °F 33.1 °F 92% 29.81 in 10.0 mi SE 6.9 mph - N/A   Overcast
2:53 AM 36.0 °F 29.6 °F 33.1 °F 89% 29.80 in 10.0 mi SE 8.1 mph - N/A   Overcast
3:53 AM 36.0 °F 28.5 °F 33.1 °F 89% 29.80 in 10.0 mi SE 10.4 mph - N/A   Overcast
4:53 AM 37.0 °F 31.6 °F 33.1 °F 86% 29.79 in 10.0 mi SSE 6.9 mph - N/A   Overcast
5:53 AM 37.0 °F 31.0 °F 32.0 °F 82% 29.80 in 10.0 mi SE 8.1 mph - N/A   Overcast
6:53 AM 36.0 °F 29.6 °F 33.1 °F 89% 29.81 in 10.0 mi SSE 8.1 mph - N/A   Overcast
7:53 AM 37.9 °F 34.4 °F 33.1 °F 83% 29.82 in 10.0 mi East 4.6 mph - N/A   Overcast
8:53 AM 39.0 °F - 33.1 °F 79% 29.82 in 10.0 mi Calm Calm - N/A   Overcast
9:53 AM 41.0 °F 38.0 °F 34.0 °F 76% 29.83 in 10.0 mi SE 4.6 mph - N/A   Overcast
10:53 AM 46.9 °F - 36.0 °F 66% 29.86 in 10.0 mi NW 6.9 mph - N/A   Mostly Cloudy
11:53 AM 50.0 °F - 34.0 °F 54% 29.86 in 10.0 mi WNW 15.0 mph - N/A   Clear
12:53 PM 51.1 °F - 30.9 °F 46% 29.85 in 10.0 mi NW 13.8 mph 20.7 mph N/A   Mostly Cloudy
1:53 PM 50.0 °F - 28.9 °F 44% 29.84 in 10.0 mi NW 10.4 mph 17.3 mph N/A   Clear
2:53 PM 51.1 °F - 28.9 °F 43% 29.84 in 10.0 mi NW 11.5 mph - N/A   Scattered Clouds
3:53 PM 51.1 °F - 30.0 °F 44% 29.83 in 10.0 mi NNE 5.8 mph - N/A   Clear
4:53 PM 48.0 °F - 30.0 °F 50% 29.83 in 10.0 mi NNE 4.6 mph - N/A   Clear
5:53 PM 46.9 °F - 30.0 °F 52% 29.84 in 10.0 mi Calm Calm - N/A   Clear
6:53 PM 43.0 °F - 30.9 °F 62% 29.85 in 10.0 mi Calm Calm - N/A   Clear
7:53 PM 39.9 °F 37.8 °F 30.0 °F 68% 29.86 in 10.0 mi South 3.5 mph - N/A   Clear
8:53 PM 41.0 °F 39.0 °F 30.0 °F 65% 29.84 in 10.0 mi ESE 3.5 mph - N/A   Clear
9:53 PM 42.1 °F 37.1 °F 30.9 °F 65% 29.84 in 10.0 mi SE 8.1 mph - N/A   Clear
10:53 PM 42.1 °F 38.4 °F 30.9 °F 65% 29.83 in 10.0 mi SE 5.8 mph - N/A   Clear
11:53 PM 41.0 °F 34.7 °F 30.9 °F 67% 29.83 in 10.0 mi SE 10.4 mph - N/A   Clear